Pampa, TX

9:14 AM CDT on September 20, 2017 (GMT -0500)
Perry Lefors

Weather History for KPPA - September, 2013

Change the Weather History Date:

Thursday, September 26, 2013

  Actual Average Record
Temperature  
Mean Temperature 77 °F -  
Max Temperature 91 °F 79 °F 91 °F (2013)
Min Temperature 63 °F 52 °F 38 °F (1970)
Cooling Degree Days 12    
Growing Degree Days 27 (Base 50)    
Moisture  
Dew Point 50 °F    
Average Humidity 41    
Maximum Humidity 66    
Minimum Humidity 24    
Precipitation  
Precipitation 0.00 in - - ()
Sea Level Pressure  
Sea Level Pressure 29.80 in    
Wind  
Wind Speed 17 mph (South)    
Max Wind Speed 25 mph    
Max Gust Speed 34 mph    
Visibility 10 miles    
Events      
Averages and records for this station are not official NWS values.
T = Trace of Precipitation, MM = Missing Value Source: NWS Daily Summary

Daily Weather History Graph

Daily Weather History Graph

Search for Another Location

Airport or City:

Trip Planner

Search our weather history database for the weather conditions in past years. The results will help you decide how hot, cold, wet, or windy it might be!

Date:

Astronomy

Sep. 26, 2013 Rise Set
Actual Time 7:35 AM CDT 7:34 PM CDT
Civil Twilight 7:09 AM CDT 7:59 PM CDT
Nautical Twilight 6:40 AM CDT 8:29 PM CDT
Astronomical Twilight 6:10 AM CDT 8:59 PM CDT
Moon No Moon Rise 2:18 PM CDT (9/26)
Length of Visible Light 12h 50m
Length of Day
11h 59m
Waning Gibbous, 54% of the Moon is Illuminated
Sep 26
Waning Gibbous
Sep 26
Last Quarter
Oct 4
New
Oct 11
First Quarter
Oct 18
Full

Hourly Weather History & Observations

Time (CDT) Temp. Dew Point Humidity Pressure Visibility Wind Dir Wind Speed Gust Speed Precip Events Conditions
12:15 AM 69.6 °F 42.4 °F 37% 29.78 in 10.0 mi South 15.0 mph - N/A   Clear
12:35 AM 68.4 °F 43.0 °F 40% 29.78 in 10.0 mi South 15.0 mph - N/A   Clear
12:55 AM 68.0 °F 43.2 °F 41% 29.78 in 10.0 mi South 12.7 mph - N/A   Clear
1:15 AM 67.3 °F 43.3 °F 42% 29.78 in 10.0 mi South 13.8 mph - N/A   Clear
1:35 AM 67.6 °F 43.3 °F 41% 29.78 in 10.0 mi South 13.8 mph - N/A   Clear
1:55 AM 67.1 °F 43.7 °F 43% 29.77 in 10.0 mi South 13.8 mph - N/A   Clear
2:15 AM 66.6 °F 43.9 °F 44% 29.76 in 10.0 mi South 15.0 mph - N/A   Clear
2:35 AM 66.7 °F 44.4 °F 44% 29.76 in 10.0 mi South 17.3 mph - N/A   Clear
2:55 AM 66.2 °F 45.0 °F 46% 29.76 in 10.0 mi South 17.3 mph - N/A   Clear
3:15 AM 66.2 °F 45.9 °F 48% 29.76 in 10.0 mi South 16.1 mph - N/A   Clear
3:35 AM 66.2 °F 46.8 °F 50% 29.77 in 10.0 mi South 16.1 mph 21.9 mph N/A   Clear
3:55 AM 66.6 °F 47.5 °F 50% 29.77 in 10.0 mi South 17.3 mph - N/A   Clear
4:15 AM 65.8 °F 48.2 °F 53% 29.76 in 10.0 mi South 16.1 mph - N/A   Clear
4:35 AM 65.3 °F 48.7 °F 55% 29.76 in 10.0 mi South 17.3 mph - N/A   Clear
4:55 AM 64.8 °F 49.3 °F 57% 29.76 in 10.0 mi South 17.3 mph - N/A   Clear
5:15 AM 64.4 °F 50.0 °F 59% 29.76 in 10.0 mi South 16.1 mph - N/A   Clear
5:35 AM 64.8 °F 50.9 °F 61% 29.76 in 10.0 mi South 17.3 mph - N/A   Clear
5:55 AM 64.8 °F 51.1 °F 61% 29.76 in 10.0 mi South 16.1 mph - N/A   Clear
6:15 AM 64.4 °F 51.4 °F 63% 29.77 in 10.0 mi South 15.0 mph - N/A   Clear
6:35 AM 63.7 °F 51.8 °F 65% 29.78 in 10.0 mi South 15.0 mph - N/A   Clear
6:55 AM 64.0 °F 51.8 °F 64% 29.78 in 10.0 mi South 15.0 mph - N/A   Clear
7:15 AM 63.5 °F 52.0 °F 66% 29.79 in 10.0 mi South 13.8 mph - N/A   Clear
7:35 AM 63.5 °F 52.0 °F 66% 29.79 in 10.0 mi South 12.7 mph - N/A   Clear
7:55 AM 63.9 °F 52.2 °F 66% 29.79 in 10.0 mi South 16.1 mph - N/A   Clear
8:15 AM 66.0 °F 52.7 °F 62% 29.80 in 10.0 mi South 17.3 mph 24.2 mph N/A   Clear
8:35 AM 67.6 °F 52.9 °F 59% 29.80 in 10.0 mi South 16.1 mph - N/A   Clear
8:55 AM 67.8 °F 53.2 °F 60% 29.81 in 10.0 mi South 13.8 mph 18.4 mph N/A   Clear
9:15 AM 69.3 °F 53.6 °F 57% 29.82 in 10.0 mi South 10.4 mph - N/A   Clear
9:35 AM 72.0 °F 54.0 °F 53% 29.83 in 10.0 mi South 15.0 mph - N/A   Clear
9:55 AM 74.7 °F 53.2 °F 47% 29.84 in 10.0 mi SSW 18.4 mph - N/A   Clear
10:15 AM 77.0 °F 52.3 °F 42% 29.84 in 10.0 mi SSW 16.1 mph 20.7 mph N/A   Clear
10:35 AM 78.4 °F 52.2 °F 40% 29.85 in 10.0 mi SSW 13.8 mph - N/A   Clear
10:55 AM 79.9 °F 50.9 °F 36% 29.84 in 10.0 mi SW 17.3 mph 25.3 mph N/A   Clear
11:15 AM 81.3 °F 51.1 °F 35% 29.84 in 10.0 mi SSW 17.3 mph 23.0 mph N/A   Clear
11:35 AM 82.2 °F 51.3 °F 34% 29.84 in 10.0 mi SSW 16.1 mph 20.7 mph N/A   Clear
11:55 AM 83.8 °F 50.9 °F 32% 29.84 in 10.0 mi SSW 15.0 mph 24.2 mph N/A   Clear
12:15 PM 85.3 °F 50.7 °F 30% 29.83 in 10.0 mi SSW 15.0 mph 23.0 mph N/A   Clear
12:35 PM 86.9 °F 50.2 °F 28% 29.83 in 10.0 mi SSW 13.8 mph 21.9 mph N/A   Clear
12:55 PM 87.3 °F 49.5 °F 27% 29.83 in 10.0 mi SSW 17.3 mph 23.0 mph N/A   Clear
1:15 PM 88.0 °F 49.3 °F 26% 29.82 in 10.0 mi SSW 18.4 mph 26.5 mph N/A   Clear
1:35 PM 89.8 °F 50.2 °F 26% 29.81 in 10.0 mi SSW 15.0 mph 19.6 mph N/A   Clear
1:55 PM 89.8 °F 49.5 °F 25% 29.81 in 10.0 mi SSW 17.3 mph 24.2 mph N/A   Clear
2:15 PM 90.3 °F 49.3 °F 24% 29.80 in 10.0 mi South 13.8 mph 27.6 mph N/A   Clear
2:35 PM 90.9 °F 49.8 °F 24% 29.80 in 10.0 mi South 17.3 mph 25.3 mph N/A   Clear
2:55 PM 91.4 °F 50.4 °F 25% 29.79 in 10.0 mi South 20.7 mph 27.6 mph N/A   Clear
3:15 PM 91.0 °F 49.8 °F 24% 29.78 in 10.0 mi South 18.4 mph 25.3 mph N/A   Scattered Clouds
3:35 PM 90.3 °F 52.2 °F 27% 29.78 in 10.0 mi SSE 18.4 mph 26.5 mph N/A   Scattered Clouds
3:55 PM 88.2 °F 51.3 °F 28% 29.77 in 10.0 mi SSE 20.7 mph 28.8 mph N/A   Mostly Cloudy
4:15 PM 88.3 °F 50.5 °F 27% 29.77 in 10.0 mi SSE 18.4 mph 27.6 mph N/A   Scattered Clouds
4:35 PM 88.7 °F 51.6 °F 28% 29.77 in 10.0 mi SSE 20.7 mph 26.5 mph N/A   Scattered Clouds
4:55 PM 88.5 °F 51.3 °F 28% 29.77 in 10.0 mi SSE 20.7 mph 26.5 mph N/A   Scattered Clouds
5:15 PM 89.2 °F 51.6 °F 27% 29.77 in 10.0 mi South 17.3 mph 28.8 mph N/A   Scattered Clouds
5:35 PM 87.8 °F 51.6 °F 29% 29.77 in 10.0 mi South 21.9 mph 27.6 mph N/A   Scattered Clouds
5:55 PM 87.1 °F 51.3 °F 29% 29.77 in 10.0 mi SSE 20.7 mph 28.8 mph N/A   Scattered Clouds
6:15 PM 86.7 °F 50.9 °F 29% 29.77 in 10.0 mi SSE 21.9 mph 29.9 mph N/A   Scattered Clouds
6:35 PM 86.5 °F 51.3 °F 30% 29.77 in 10.0 mi South 16.1 mph 27.6 mph N/A   Scattered Clouds
6:55 PM 86.2 °F 51.1 °F 30% 29.77 in 10.0 mi SSE 18.4 mph 28.8 mph N/A   Mostly Cloudy
7:15 PM 84.4 °F 50.9 °F 31% 29.78 in 10.0 mi SSE 19.6 mph 27.6 mph N/A   Scattered Clouds
7:35 PM 83.5 °F 50.9 °F 32% 29.78 in 10.0 mi SSE 19.6 mph 27.6 mph N/A   Scattered Clouds
7:55 PM 82.6 °F 50.7 °F 33% 29.79 in 10.0 mi SSE 20.7 mph 29.9 mph N/A   Mostly Cloudy
8:15 PM 81.9 °F 50.5 °F 34% 29.79 in 10.0 mi SSE 21.9 mph 31.1 mph N/A   Scattered Clouds
8:35 PM 80.6 °F 50.9 °F 35% 29.80 in 10.0 mi SSE 23.0 mph 34.5 mph N/A   Scattered Clouds
8:55 PM 79.7 °F 51.1 °F 37% 29.80 in 10.0 mi SSE 25.3 mph 34.5 mph N/A   Clear
9:15 PM 78.8 °F 51.4 °F 38% 29.81 in 10.0 mi SSE 24.2 mph 32.2 mph N/A   Clear
9:35 PM 77.9 °F 52.0 °F 40% 29.82 in 10.0 mi SSE 25.3 mph 32.2 mph N/A   Clear
9:55 PM 77.4 °F 52.2 °F 41% 29.83 in 10.0 mi SSE 24.2 mph 28.8 mph N/A   Clear
10:15 PM 76.5 °F 52.3 °F 43% 29.83 in 10.0 mi SSE 20.7 mph 28.8 mph N/A   Clear
10:35 PM 76.1 °F 52.7 °F 44% 29.84 in 10.0 mi South 21.9 mph 32.2 mph N/A   Clear
10:55 PM 75.2 °F 53.1 °F 46% 29.84 in 10.0 mi South 21.9 mph 29.9 mph N/A   Clear
11:15 PM 74.7 °F 52.9 °F 46% 29.85 in 10.0 mi South 21.9 mph 32.2 mph N/A   Clear
11:35 PM 73.8 °F 52.7 °F 48% 29.85 in 10.0 mi South 23.0 mph 29.9 mph N/A   Clear
11:55 PM 73.0 °F 52.3 °F 48% 29.85 in 10.0 mi South 21.9 mph 29.9 mph N/A   Clear